THY53R LTCG-LTAC

Flight info

Callsign THY53R
Flight time 1h 4m
Altitude 36000
Route TEME1A TEMEL UW71 ILHAN AC093 NAZPU AC094 AC095 AC096 AC097 BOZOG ANK FI03R
Aircraft B738/M-SDE2E3FGHIRWXY/LB1

Departure

Time 2026-04-29 11:57
Airport Trabzon International Airport (LTCG)

Arrival

Time 2026-04-29 13:01
Airport Esenboğa International Airport (LTAC)
Time Latitude Longitude Altitude Speed Heading
2026-04-29 11:44 40.99569 39.78084 115 ft 0 kts 202°
2026-04-29 11:51 40.99578 39.78089 111 ft 2 kts 202°
2026-04-29 11:51 40.99593 39.78098 110 ft 2 kts 205°
2026-04-29 11:51 40.99608 39.78107 112 ft 2 kts 211°
2026-04-29 11:51 40.99621 39.78122 110 ft 2 kts 254°
2026-04-29 11:52 40.99620 39.78138 110 ft 1 kts 291°
2026-04-29 11:52 40.99620 39.78140 111 ft 0 kts 291°
2026-04-29 11:54 40.99623 39.78130 112 ft 3 kts 291°
2026-04-29 11:54 40.99641 39.78068 114 ft 11 kts 292°
2026-04-29 11:54 40.99678 39.77949 113 ft 16 kts 292°
2026-04-29 11:55 40.99718 39.77818 113 ft 16 kts 292°
2026-04-29 11:55 40.99764 39.77673 108 ft 17 kts 292°
2026-04-29 11:55 40.99810 39.77531 108 ft 17 kts 303°
2026-04-29 11:55 40.99912 39.77507 110 ft 16 kts 24°
2026-04-29 11:56 40.99934 39.77599 108 ft 0 kts 113°
2026-04-29 11:56 40.99929 39.77612 108 ft 5 kts 113°
2026-04-29 11:56 40.99833 39.77922 104 ft 81 kts 112°
2026-04-29 11:56 40.99515 39.78959 111 ft 159 kts 110°
2026-04-29 11:57 40.99065 39.80392 970 ft 162 kts 111°
2026-04-29 11:57 40.98651 39.81783 2107 ft 168 kts 105°
2026-04-29 11:57 40.98508 39.83415 2729 ft 190 kts 88°
2026-04-29 11:57 40.98551 39.85256 3286 ft 205 kts 87°
2026-04-29 11:58 40.98630 39.87217 3820 ft 216 kts 84°
2026-04-29 11:58 40.99061 39.89141 4449 ft 225 kts 59°
2026-04-29 11:58 41.00070 39.90793 5045 ft 239 kts 43°
2026-04-29 11:58 41.01459 39.92104 5652 ft 252 kts 23°
2026-04-29 11:59 41.03146 39.92638 6598 ft 248 kts
2026-04-29 11:59 41.04872 39.92936 7401 ft 253 kts
2026-04-29 11:59 41.06620 39.92759 8174 ft 255 kts 338°
2026-04-29 11:59 41.08082 39.91473 8804 ft 265 kts 309°
2026-04-29 12:00 41.08993 39.89293 9381 ft 276 kts 292°
2026-04-29 12:00 41.09725 39.86910 10186 ft 281 kts 291°
2026-04-29 12:00 41.10472 39.84417 10557 ft 304 kts 291°
2026-04-29 12:00 41.11291 39.81701 10752 ft 330 kts 291°
2026-04-29 12:01 41.12183 39.78785 10984 ft 351 kts 291°
2026-04-29 12:01 41.13120 39.75744 11550 ft 360 kts 291°
2026-04-29 12:01 41.13953 39.72605 12292 ft 362 kts 280°
2026-04-29 12:01 41.13976 39.69275 13083 ft 364 kts 259°
2026-04-29 12:02 41.13137 39.66114 13880 ft 366 kts 242°
2026-04-29 12:02 41.11575 39.63431 14560 ft 371 kts 225°
2026-04-29 12:02 41.09642 39.61137 15234 ft 375 kts 222°
2026-04-29 12:02 41.07665 39.58851 15878 ft 378 kts 222°
2026-04-29 12:03 41.05705 39.56502 16524 ft 381 kts 227°
2026-04-29 12:03 41.04244 39.53590 17150 ft 383 kts 247°
2026-04-29 12:03 41.03536 39.50192 17818 ft 385 kts 263°
2026-04-29 12:03 41.03564 39.46635 18506 ft 388 kts 273°
2026-04-29 12:04 41.03794 39.43112 19052 ft 391 kts 274°
2026-04-29 12:04 41.04059 39.39507 19527 ft 396 kts 274°
2026-04-29 12:04 41.04320 39.35864 20104 ft 397 kts 274°
2026-04-29 12:04 41.04567 39.32209 20705 ft 398 kts 274°
2026-04-29 12:05 41.04802 39.28547 21260 ft 400 kts 274°
2026-04-29 12:05 41.05028 39.24863 21790 ft 403 kts 274°
2026-04-29 12:05 41.05254 39.21148 22309 ft 405 kts 274°
2026-04-29 12:05 41.05477 39.17426 22826 ft 407 kts 274°
2026-04-29 12:06 41.05702 39.13676 23335 ft 409 kts 274°
2026-04-29 12:06 41.05983 39.09916 23809 ft 411 kts 276°
2026-04-29 12:06 41.06337 39.06144 24217 ft 413 kts 276°
2026-04-29 12:06 41.06713 39.02363 24632 ft 415 kts 277°
2026-04-29 12:07 41.07088 38.98568 25041 ft 416 kts 276°
2026-04-29 12:07 41.07455 38.94750 25421 ft 418 kts 276°
2026-04-29 12:07 41.07815 38.90913 25796 ft 420 kts 276°
2026-04-29 12:07 41.08171 38.87061 26169 ft 422 kts 276°
2026-04-29 12:08 41.08519 38.83242 26523 ft 424 kts 276°
2026-04-29 12:08 41.08872 38.79358 26878 ft 425 kts 276°
2026-04-29 12:08 41.09226 38.75457 27230 ft 427 kts 276°
2026-04-29 12:08 41.09580 38.71536 27560 ft 429 kts 276°
2026-04-29 12:09 41.09926 38.67605 27891 ft 430 kts 276°
2026-04-29 12:09 41.10255 38.63654 28213 ft 432 kts 276°
2026-04-29 12:09 41.10579 38.59689 28531 ft 433 kts 276°
2026-04-29 12:09 41.10910 38.55720 28957 ft 432 kts 276°
2026-04-29 12:10 41.11225 38.52001 29480 ft 429 kts 276°
2026-04-29 12:10 41.11557 38.48088 29993 ft 426 kts 276°
2026-04-29 12:10 41.11887 38.44189 30399 ft 425 kts 276°
2026-04-29 12:10 41.12214 38.40294 30721 ft 425 kts 276°
2026-04-29 12:11 41.12538 38.36404 31049 ft 424 kts 276°
2026-04-29 12:11 41.12861 38.32521 31411 ft 423 kts 276°
2026-04-29 12:11 41.13171 38.28774 31745 ft 422 kts 276°
2026-04-29 12:11 41.13489 38.24903 32064 ft 422 kts 276°
2026-04-29 12:12 41.13800 38.21080 32375 ft 422 kts 276°
2026-04-29 12:12 41.14112 38.17212 32710 ft 421 kts 276°
2026-04-29 12:12 41.14421 38.13359 33038 ft 420 kts 276°
2026-04-29 12:12 41.14730 38.09505 33333 ft 420 kts 276°
2026-04-29 12:13 41.15038 38.05651 33640 ft 420 kts 276°
2026-04-29 12:13 41.15345 38.01786 33948 ft 419 kts 276°
2026-04-29 12:13 41.15650 37.97934 34235 ft 419 kts 276°
2026-04-29 12:13 41.15954 37.94090 34470 ft 419 kts 276°
2026-04-29 12:14 41.16257 37.90236 34710 ft 419 kts 276°
2026-04-29 12:14 41.16564 37.86387 34957 ft 419 kts 276°
2026-04-29 12:14 41.16890 37.82597 35179 ft 419 kts 276°
2026-04-29 12:14 41.17234 37.78703 35427 ft 418 kts 276°
2026-04-29 12:15 41.17568 37.74923 35665 ft 418 kts 276°
2026-04-29 12:15 41.17904 37.71084 35880 ft 418 kts 276°
2026-04-29 12:15 41.18235 37.67252 36107 ft 418 kts 276°
2026-04-29 12:15 41.18565 37.63400 36164 ft 421 kts 276°
2026-04-29 12:16 41.19053 37.55656 36175 ft 418 kts 272°
2026-04-29 12:16 41.19502 37.47988 36178 ft 415 kts 275°
2026-04-29 12:17 41.20091 37.40376 36176 ft 413 kts 275°
2026-04-29 12:17 41.20565 37.34078 36177 ft 412 kts 275°
2026-04-29 12:18 41.21202 37.25277 36179 ft 412 kts 275°
2026-04-29 12:18 41.21040 37.17691 36186 ft 412 kts 264°
2026-04-29 12:19 41.20446 37.11394 36179 ft 414 kts 263°
2026-04-29 12:19 41.19730 37.03784 36178 ft 416 kts 264°
2026-04-29 12:20 41.19032 36.96135 36176 ft 418 kts 264°
2026-04-29 12:20 41.18340 36.88471 36180 ft 419 kts 264°
2026-04-29 12:21 41.17642 36.80776 36181 ft 420 kts 264°
2026-04-29 12:21 41.16939 36.73079 36184 ft 420 kts 264°
2026-04-29 12:22 41.16230 36.65381 36185 ft 420 kts 264°
2026-04-29 12:22 41.15518 36.57702 36182 ft 419 kts 264°
2026-04-29 12:23 41.14802 36.50039 36183 ft 418 kts 264°
2026-04-29 12:23 41.14082 36.42390 36177 ft 416 kts 264°
2026-04-29 12:24 41.13365 36.34832 36175 ft 415 kts 264°
2026-04-29 12:24 41.12640 36.27238 36165 ft 415 kts 264°
2026-04-29 12:25 41.11912 36.19663 36157 ft 414 kts 264°
2026-04-29 12:26 41.10811 36.08306 36148 ft 413 kts 264°
2026-04-29 12:26 41.10073 36.00745 36140 ft 413 kts 264°
2026-04-29 12:27 41.09241 35.93197 36123 ft 414 kts 259°
2026-04-29 12:27 41.07334 35.85962 36118 ft 417 kts 251°
2026-04-29 12:28 41.05184 35.78813 36096 ft 418 kts 251°
2026-04-29 12:28 41.03070 35.71632 36079 ft 418 kts 252°
2026-04-29 12:29 41.00977 35.64439 36063 ft 419 kts 252°
2026-04-29 12:29 40.98913 35.57238 36057 ft 419 kts 252°
2026-04-29 12:30 40.96841 35.50033 36055 ft 419 kts 252°
2026-04-29 12:30 40.94761 35.42842 36047 ft 418 kts 252°
2026-04-29 12:31 40.92681 35.35655 36060 ft 418 kts 252°
2026-04-29 12:31 40.90596 35.28461 36052 ft 419 kts 252°
2026-04-29 12:32 40.88505 35.21267 36045 ft 419 kts 252°
2026-04-29 12:32 40.86424 35.14124 36046 ft 419 kts 252°
2026-04-29 12:33 40.84326 35.06945 36034 ft 419 kts 252°
2026-04-29 12:33 40.82224 34.99771 36039 ft 418 kts 252°
2026-04-29 12:34 40.80121 34.92611 36015 ft 418 kts 252°
2026-04-29 12:34 40.78016 34.85465 36029 ft 418 kts 252°
2026-04-29 12:35 40.75906 34.78316 36024 ft 418 kts 252°
2026-04-29 12:35 40.73786 34.71174 36000 ft 418 kts 252°
2026-04-29 12:36 40.71643 34.64044 36006 ft 418 kts 252°
2026-04-29 12:36 40.69491 34.56912 36008 ft 418 kts 252°
2026-04-29 12:37 40.67356 34.49843 36001 ft 418 kts 252°
2026-04-29 12:37 40.65203 34.42728 35993 ft 418 kts 252°
2026-04-29 12:38 40.63049 34.35629 35989 ft 418 kts 252°
2026-04-29 12:38 40.60892 34.28538 35993 ft 417 kts 252°
2026-04-29 12:39 40.58730 34.21449 35998 ft 417 kts 252°
2026-04-29 12:39 40.56564 34.14363 35990 ft 417 kts 252°
2026-04-29 12:40 40.54393 34.07282 35987 ft 418 kts 252°
2026-04-29 12:40 40.53304 34.03737 35847 ft 420 kts 252°
2026-04-29 12:40 40.52202 34.00147 35300 ft 424 kts 252°
2026-04-29 12:40 40.51097 33.96563 34677 ft 421 kts 252°
2026-04-29 12:41 40.50034 33.92980 34014 ft 419 kts 256°
2026-04-29 12:41 40.49109 33.89355 33248 ft 419 kts 257°
2026-04-29 12:41 40.48224 33.85718 32532 ft 418 kts 257°
2026-04-29 12:41 40.47335 33.82084 31806 ft 417 kts 256°
2026-04-29 12:42 40.46431 33.78455 31042 ft 418 kts 256°
2026-04-29 12:42 40.45457 33.74911 30466 ft 418 kts 250°
2026-04-29 12:42 40.44014 33.71593 29927 ft 420 kts 241°
2026-04-29 12:42 40.42222 33.68561 29325 ft 421 kts 234°
2026-04-29 12:43 40.40093 33.65919 28775 ft 423 kts 224°
2026-04-29 12:43 40.37775 33.63584 28252 ft 418 kts 223°
2026-04-29 12:43 40.35451 33.61304 27724 ft 414 kts 223°
2026-04-29 12:43 40.33159 33.59056 27211 ft 409 kts 223°
2026-04-29 12:44 40.30896 33.56820 26679 ft 405 kts 223°
2026-04-29 12:44 40.28665 33.54597 26188 ft 401 kts 223°
2026-04-29 12:44 40.26459 33.52389 25675 ft 398 kts 223°
2026-04-29 12:44 40.24271 33.50194 25196 ft 394 kts 223°
2026-04-29 12:45 40.22099 33.48017 24689 ft 392 kts 222°
2026-04-29 12:45 40.19943 33.45859 24209 ft 389 kts 222°
2026-04-29 12:45 40.17799 33.43716 23718 ft 387 kts 222°
2026-04-29 12:45 40.15719 33.41484 23051 ft 386 kts 225°
2026-04-29 12:46 40.13718 33.39174 22510 ft 382 kts 226°
2026-04-29 12:46 40.12700 33.37986 22234 ft 380 kts 226°
2026-04-29 12:47 40.10763 33.35741 21741 ft 377 kts 225°
2026-04-29 12:47 40.08779 33.33469 21260 ft 374 kts 225°
2026-04-29 12:47 40.06852 33.31275 20760 ft 371 kts 225°
2026-04-29 12:47 40.04913 33.29073 20265 ft 368 kts 225°
2026-04-29 12:48 40.02993 33.26894 19807 ft 364 kts 225°
2026-04-29 12:48 40.01039 33.24795 19344 ft 364 kts 221°
2026-04-29 12:48 39.99012 33.22832 18847 ft 359 kts 219°
2026-04-29 12:48 39.97007 33.20956 18321 ft 351 kts 219°
2026-04-29 12:49 39.95039 33.19116 17734 ft 344 kts 219°
2026-04-29 12:49 39.93117 33.17305 17136 ft 337 kts 219°
2026-04-29 12:49 39.91279 33.15558 16568 ft 332 kts 216°
2026-04-29 12:49 39.89426 33.13795 16022 ft 328 kts 216°
2026-04-29 12:50 39.87594 33.12051 15469 ft 324 kts 216°
2026-04-29 12:50 39.85785 33.10330 14919 ft 320 kts 216°
2026-04-29 12:50 39.83996 33.08629 14372 ft 317 kts 216°
2026-04-29 12:50 39.82222 33.06943 13819 ft 314 kts 216°
2026-04-29 12:51 39.80465 33.05273 13274 ft 311 kts 216°
2026-04-29 12:51 39.78723 33.03619 12721 ft 309 kts 216°
2026-04-29 12:51 39.76997 33.01982 12183 ft 306 kts 216°
2026-04-29 12:51 39.75308 33.00370 11639 ft 303 kts 219°
2026-04-29 12:52 39.74020 32.98245 11062 ft 301 kts 248°
2026-04-29 12:52 39.73742 32.95582 10519 ft 299 kts 277°
2026-04-29 12:52 39.74294 32.93003 9973 ft 297 kts 298°
2026-04-29 12:52 39.75549 32.90896 9451 ft 295 kts 313°
2026-04-29 12:53 39.76996 32.89033 8971 ft 291 kts 315°
2026-04-29 12:53 39.78450 32.87226 8514 ft 287 kts 316°
2026-04-29 12:53 39.79887 32.85453 8066 ft 283 kts 316°
2026-04-29 12:53 39.81311 32.83700 7613 ft 280 kts 316°
2026-04-29 12:54 39.82719 32.81966 7230 ft 275 kts 316°
2026-04-29 12:54 39.84087 32.80283 6975 ft 267 kts 316°
2026-04-29 12:54 39.85530 32.78844 6719 ft 259 kts 336°
2026-04-29 12:54 39.87236 32.78412 6661 ft 250 kts
2026-04-29 12:55 39.88873 32.78899 6663 ft 234 kts 21°
2026-04-29 12:55 39.90314 32.79740 6654 ft 219 kts 25°
2026-04-29 12:55 39.91640 32.80564 6634 ft 203 kts 25°
2026-04-29 12:55 39.92885 32.81331 6650 ft 196 kts 25°
2026-04-29 12:56 39.94126 32.82084 6658 ft 197 kts 25°
2026-04-29 12:56 39.95357 32.82868 6636 ft 196 kts 30°
2026-04-29 12:56 39.96490 32.83832 6644 ft 194 kts 35°
2026-04-29 12:56 39.97599 32.84898 6408 ft 201 kts 37°
2026-04-29 12:57 39.98721 32.85991 6145 ft 200 kts 37°
2026-04-29 12:57 39.99826 32.87066 5888 ft 196 kts 37°
2026-04-29 12:57 40.00908 32.88120 5623 ft 193 kts 37°
2026-04-29 12:57 40.01971 32.89154 5369 ft 188 kts 37°
2026-04-29 12:58 40.02986 32.90156 5157 ft 178 kts 33°
2026-04-29 12:58 40.03993 32.91127 4931 ft 184 kts 33°
2026-04-29 12:58 40.05022 32.92116 4706 ft 184 kts 33°
2026-04-29 12:58 40.06024 32.93090 4419 ft 175 kts 34°
2026-04-29 12:59 40.06957 32.94001 4191 ft 160 kts 34°
2026-04-29 12:59 40.07830 32.94848 3999 ft 153 kts 34°
2026-04-29 12:59 40.08685 32.95680 3808 ft 154 kts 35°
2026-04-29 12:59 40.09560 32.96531 3601 ft 159 kts 35°
2026-04-29 13:00 40.10456 32.97401 3366 ft 162 kts 36°
2026-04-29 13:00 40.11369 32.98290 3169 ft 166 kts 34°
2026-04-29 13:00 40.12267 32.99139 3133 ft 142 kts 36°
2026-04-29 13:00 40.12944 32.99782 3134 ft 99 kts 36°
2026-04-29 13:01 40.13348 33.00171 3134 ft 34 kts 40°
2026-04-29 13:01 40.13343 33.00305 3134 ft 15 kts 133°
2026-04-29 13:01 40.13246 33.00347 3134 ft 15 kts 179°
2026-04-29 13:01 40.13157 33.00295 3133 ft 14 kts 216°
2026-04-29 13:02 40.13079 33.00220 3133 ft 14 kts 216°
2026-04-29 13:02 40.12992 33.00137 3133 ft 17 kts 216°
2026-04-29 13:02 40.12883 33.00032 3133 ft 21 kts 215°
2026-04-29 13:02 40.12760 32.99915 3133 ft 23 kts 216°
2026-04-29 13:03 40.12634 32.99795 3133 ft 22 kts 216°
2026-04-29 13:03 40.12513 32.99678 3133 ft 21 kts 216°
2026-04-29 13:03 40.12395 32.99565 3133 ft 21 kts 216°
2026-04-29 13:03 40.12281 32.99457 3133 ft 20 kts 213°
2026-04-29 13:04 40.12170 32.99351 3133 ft 19 kts 216°
2026-04-29 13:04 40.12063 32.99249 3133 ft 19 kts 216°
2026-04-29 13:04 40.11959 32.99150 3133 ft 18 kts 216°
2026-04-29 13:04 40.11860 32.99055 3133 ft 17 kts 216°
2026-04-29 13:05 40.11784 32.99076 3133 ft 12 kts 129°
2026-04-29 13:05 40.11710 32.99124 3133 ft 12 kts 182°
2026-04-29 13:05 40.11650 32.99055 3133 ft 12 kts 235°
2026-04-29 13:05 40.11601 32.98971 3133 ft 12 kts 228°
2026-04-29 13:06 40.11551 32.98906 3133 ft 6 kts 221°
2026-04-29 13:06 40.11526 32.98908 3133 ft 6 kts 153°
2026-04-29 13:06 40.11499 32.98943 3133 ft 5 kts 132°
2026-04-29 13:06 40.11495 32.98950 3133 ft 0 kts 132°